World > North America > United States > South Dakota > Beresford  

Beresford, SD Hourly Weather Updates

Feedback E-mail the Weather

Quick Clicks

Beresford, SD Weather Maps

°F °C°F °C
Beresford Weather Map
UTC Time: 6/25/2024, 19:49
Your Time:

Beresford, SD Regional Weather

Expires:202406252000;;918053
ASUS43 KFSD 251910
RWRFSD

WEATHER ROUNDUP FOR SE SOUTH DAKOTA/SW MINNESOTA/NW IOWA
NATIONAL WEATHER SERVICE SIOUX FALLS SD
200 PM CDT TUE JUN 25 2024

NOTE: "FAIR" INDICATES FEW OR NO CLOUDS BELOW 12,000 FEET WITH NO
SIGNIFICANT WEATHER AND OR OBSTRUCTIONS TO VISIBILITY.



IAZ001>003-012>014-020>022-031-032-NEZ013-014-SDZ071-252000-
NORTHWEST IOWA
  
CITY           SKY/WX    TMP DP  RH WIND       PRES   REMARKS
CHEROKEE       MOSUNNY   86  64  48 E6        29.83F TC  30           
DENISON        MOSUNNY   88  82  84 E6        29.83S HX 108  TC  31   
ESTHERVILLE    MOSUNNY   84  55  36 E9        29.85S TC  29           
LE MARS          N/A    N/A N/A N/A MISG        N/A                   
MAURICE        SUNNY     86  64  48 E12       29.82S TC  30           
SHELDON        SUNNY     86  54  32 SE12      29.84S TC  30           
SIOUX CITY     MOSUNNY   89  75  63 E10       29.81F HX  99  TC  32   
SPENCER        MOSUNNY   88  55  32 NE8       29.86R TC  31           
STORM LAKE     MOSUNNY   86  68  54 NE10      29.85F TC  30           
$$
 
ABBREVIATIONS USED IN REMARKS
   TC - TEMPERATURE IN CELSIUS
  WCI - WIND CHILL INDEX
   HX - HEAT INDEX
  VSB - VISIBILITY

  

SKY/WX - Weather  TMP - Temperature  DP - Dew Point  RH - Humidity
WIND - Wind Direction/Speed PRES - Barometric Pressure VSB - Visibility
WCI - Wind Chill Index E13G22 Wind - East Wind 13 mph/Gusts of 22 mph

Trending Headlines

Trending Entertainment Headlines

Beresford Radar Loop

Use the map search tool if you want to place a location marker on the radar map...

Beresford Quick Facts

National Two Day Weather Forecast


E-mail the Beresford Weather Forecast

Voice your opinion or tell us about page issues...